This demonstration page uses our WeatherBlox Daily Observations layout. Learn more.

Left ArrowRight Arrow

Hourly Observations for February 7, 2022

Temp ( °F °C ) Dew Point ( °F °C ) Humidity (%) Winds ( mph kmh ) Pressure ( in mb ) Visibility ( mi km ) Precip ( " mm )
12:56 am 00:56 Mostly Clear 34 1.1 17 -8.3 50 50 SW 13 20 30.30 1026 10 16 0.00 0.00
1:56 am 01:56 Partly Cloudy 34 1.1 19 -7.2 54 54 WSW 12 19 30.30 1026 10 16 0.00 0.00
2:56 am 02:56 Clear 33 0.6 20 -6.7 58 58 WSW 12 19 30.29 1026 10 16 0.00 0.00
3:56 am 03:56 Clear 30 -1.1 21 -6.1 69 69 W 7 11 30.27 1025 10 16 0.00 0.00
4:56 am 04:56 Clear 30 -1.1 23 -5 75 75 W 9 15 30.27 1025 10 16 0.00 0.00
5:56 am 05:56 Clear 30 -1.1 21 -6.1 69 69 W 7 11 30.26 1025 10 16 0.00 0.00
6:56 am 06:56 Mostly Cloudy 30 -1.1 20 -6.7 66 66 W 9 15 30.27 1025 10 16 0.00 0.00
7:56 am 07:56 Cloudy 32 0 20 -6.7 61 61 W 8 13 30.28 1025 10 16 0.00 0.00
8:56 am 08:56 Cloudy 34 1.1 20 -6.7 56 56 WNW 13 20 30.29 1026 10 16 0.00 0.00
9:56 am 09:56 Sunny 39 3.9 20 -6.7 46 46 WNW 15 24 30.27 1025 10 16 0.00 0.00
10:56 am 10:56 Sunny 46 7.8 21 -6.1 37 37 WNW 15 24 30.25 1024 10 16 0.00 0.00
11:56 am 11:56 Sunny 51 10.6 21 -6.1 31 31 NW 10 17 30.22 1023 10 16 0.00 0.00
12:56 pm 12:56 Sunny 55 12.8 21 -6.1 26 26 WNW 13 20 30.19 1022 10 16 0.00 0.00
1:56 pm 13:56 Sunny 57 13.9 21 -6.1 25 25 WNW 10 17 30.16 1021 10 16 0.00 0.00
2:56 pm 14:56 Sunny 59 15 21 -6.1 23 23 WNW 13 20 30.13 1020 10 16 0.00 0.00
3:56 pm 15:56 Sunny 59 15 21 -6.1 23 23 NW 13 20 30.12 1020 10 16 0.00 0.00
4:56 pm 16:56 Sunny 58 14.4 20 -6.7 23 23 WNW 10 17 30.11 1020 10 16 0.00 0.00
5:56 pm 17:56 Sunny 54 12.2 20 -6.7 26 26 WSW 7 11 30.10 1019 10 16 0.00 0.00
6:56 pm 18:56 Clear 48 8.9 20 -6.7 33 33 SW 9 15 30.10 1019 10 16 0.00 0.00
7:56 pm 19:56 Clear 43 6.1 18 -7.8 37 37 WSW 10 17 30.10 1019 10 16 0.00 0.00
8:56 pm 20:56 Clear 42 5.6 18 -7.8 38 38 SW 12 19 30.09 1019 10 16 0.00 0.00
9:56 pm 21:56 Clear 40 4.4 18 -7.8 41 41 SW 13 20 30.07 1018 10 16 0.00 0.00
10:56 pm 22:56 Clear 38 3.3 17 -8.3 43 43 SW 12 19 30.04 1017 10 16 0.00 0.00
11:56 pm 23:56 Clear 36 2.2 17 -8.3 46 46 WSW 10 17 30.02 1017 10 16 0.00 0.00

Powered by AerisWeather